Tracking 20626 objects as of 8-Apr-2020
HD Live streaming from Space Station
objects crossing your sky now

BEESAT-4

Track BEESAT-4 now!
10-day predictions
BEESAT-4 is classified as:


NORAD ID: 41619
Int'l Code: 2016-040W
Perigee: 492.7 km
Apogee: 510.2 km
Inclination: 97.3 °
Period: 94.5 minutes
Semi major axis: 6872 km
RCS: Unknown
Launch date: June 22, 2016
Source: Germany (GER)
Launch site: SRIHARIKOTA (SRI)

Uplink (MHz):
Downlink (MHz): 435.950
Beacon (MHz): 435.950
Mode: 4800bps GMSK CW
Call sign: DP0BEH
Status: Active

aabbcc
Your satellite tracking list
Your tracking list is empty




NASA's NSSDC Master Catalog

Two Line Element Set (TLE):
1 41619U 16040W   20099.42977646 +.00001329 +00000-0 +57947-4 0  9998
2 41619 097.3270 160.6002 0012733 070.3649 289.8961 15.23830433198734
Source of the keplerian elements: AFSPC